Location: Aranbee
(34.0885°N, 118.2342°W)
Time: 23:07:13
(UTC+00:00)

Tiros 1 - Pass Details

Date: 02 December 2020
Orbit: 630 x 663 km, 48.4° (Epoch: 20 January)

Event Time Altitude Azimuth Distance (km) Brightness Sun altitude
Rises 03:35:56 0° 312° (NW) 2,982 11.1 -35.1°
Reaches altitude 10° 03:38:24 10° 319° (NW) 2,064 10.1 -35.6°
Enters shadow 03:38:29 10° 319° (NW) 2,036 10.0 -35.6°
Maximum altitude 03:42:57 44° 31° (NNE) 900 - -36.6°
Drops below altitude 10° 03:47:27 10° 104° (ESE) 2,037 - -37.5°
Sets 03:49:51 0° 111° (ESE) 2,939 - -38.0°
